Location: Morisset
(33.1080°S, 151.4871°E)
Time: 11:55:53
(UTC+00:00)

Cosmos 1818 - Pass Details

Date: 29 October 2020
Orbit: 775 x 798 km, 65.0° (Epoch: 23 November)

Event Time Altitude Azimuth Distance (km) Brightness Sun altitude
Exits shadow 17:39:34 24° 288° (WNW) 1,579 4.5 -15.7°
Maximum altitude 17:42:09 39° 237° (WSW) 1,181 4.2 -15.3°
Drops below altitude 10° 17:47:12 10° 168° (SSE) 2,360 6.6 -14.3°
Sets 17:49:48 0° 160° (SSE) 3,291 7.6 -13.8°
